Find OneWeb SL0369

NORAD ID: 49295 Int'l Des: 2021-090 Owner: ONEWEBN Country: UK Constellation: oneweb operational
LEOCIRCULARPOLARONEWEB_TYPE

現在のビュー

3D地球を読み込み中...

About OneWeb SL0369

OneWeb SL0369 (NORAD 49295) is a oneweb constellation satellite launched Oct 14, 2021 by ONEWEBN of UK. It operates in LEO, CIRCULAR, POLAR, ONEWEB_TYPE orbit with a mass of 148.00 kg.

OneWeb SL0369について

説明を読み込み中...

次回通過

Passes for default location (London). Set your location on the main map for personalized predictions.

高度履歴

Loading altitude history...

軌道要素

1 49295U 21090S 26171.29046142 .00000002 00000-0 -26633-4 0 9993
2 49295 87.9171 304.3553 0001793 99.9802 260.1533 13.19724979226826
Epoch: Jun 20, 2026 • Age: 6 hours

現在のステータス

高度 1189.8 km
速度 7.26 km/s
衛星直下点 36.47°N, 16.69°E
打ち上げ日 Oct 14, 2021
運用期間 4.6 years
タイプ internet

技術仕様

分類 Payload
質量 148.00 kg
乾燥質量 140.00 kg
総質量 148.00 kg
長さ 1.30 m
直径 1.00 m
スパン 5.00 m
形状 Trapezoid+2 pan
製造者 ONEWUS
バスタイプ ARROW
フェーズステータス In Orbit
所有者/国 ONEWEBN/UK

Most Searched